Location: Ladd Observatory
(41.8387°N, 71.3996°W)
Time: 23:33:03
(UTC-05:00)

Daily predictions for brighter satellites

Satellite Brightness Start Highest point End
(mag) Time Altitude Azimuth Time Altitude Azimuth Time Altitude Azimuth
Meteor 1-18 Rocket 4.2 16:37:50 10° S 16:43:22 74° E 16:49:00 10° NNE
Cosmos 1666 3.6 16:43:00 10° NNE 16:46:12 26° ENE 16:49:22 10° SE
Cosmos 1607 4.2 16:41:06 10° NW 16:47:38 83° WSW 16:54:03 10° SSE
CZ-4 R/B 2.1 16:45:38 10° SE 16:49:00 29° ENE 16:52:27 10° N
Cosmos 1455 Rocket 3.9 16:45:08 10° NNE 16:49:03 30° ENE 16:52:55 10° SE
NOSS 2-3 (C) 4.2 16:44:31 10° SW 16:49:08 69° NW 16:54:36 10° NNE
SMAP 3.3 16:45:08 10° SE 16:49:35 47° ENE 16:54:03 10° N
Cosmos 1544 Rocket 4.1 16:49:04 10° N 16:53:05 35° ENE 16:57:03 10° SE
CENTAUR R/B 4.3 16:50:57 10° NNW 16:56:02 19° NNE 17:01:26 10° ENE
IRAS Rocket 4.2 16:52:47 10° SSE 16:58:14 75° ENE 17:03:43 10° NNW
YAOGAN 1 3.4 16:54:31 10° SE 16:58:16 29° ENE 17:02:01 10° N
CSL-04 Debris 4.1 16:53:37 10° SSE 16:58:56 66° ENE 17:04:17 10° N
Cosmos 1898 Rocket 4.1 16:56:29 10° SSW 17:01:36 58° WNW 17:06:48 10° NNE
ALOS 3.5 16:58:46 10° ESE 17:02:03 19° ENE 17:05:21 10° NNE
SJ-12 4.5 16:58:00 10° S 17:02:05 63° W 17:06:11 10° NNW
Ariane Rocket 2.9 16:58:07 10° SSE 17:03:08 69° ENE 17:08:11 10° N
Cosmos 2279 Rocket 4.0 17:00:08 10° S 17:06:22 77° E 17:12:39 10° N
USA 116 4.0 17:03:53 10° NNE 17:06:47 31° E 17:09:34 10° SSE
Hubble Space Telescope 3.4 17:07:06 10° SSW 17:08:56 13° S 17:10:48 10° SSE
SJ-7 4.3 17:05:28 10° SSE 17:09:28 89° ENE 17:13:28 10° NNW
Meteor 1-19 Rocket 4.3 17:06:46 10° S 17:12:17 58° E 17:17:57 10° NNE
COSMO-SKYMED 1 3.5 17:08:44 10° NE 17:12:28 28° E 17:16:11 10° SSE
Cosmos 1125 Rocket 4.2 17:08:38 10° SSE 17:13:20 33° E 17:17:53 11° NE
Cosmos 389 Rocket 2.3 17:10:23 10° N 17:13:53 85° E 17:17:19 10° S
Cosmos 1937 Rocket 4.0 17:09:35 10° SSW 17:14:43 62° WNW 17:19:50 10° NNE
BREEZE-M DEB (TANK) 4.1 17:13:56 10° NW 17:16:25 31° NNE 17:20:00 14° E
CZ-2C R/B 4.3 17:11:49 10° SSW 17:16:32 35° W 17:21:16 10° NNW
USA 238 DEB 3.8 17:10:52 10° NNW 17:17:56 62° NE 17:25:02 10° SE
USA 238 3.8 17:10:59 10° NNW 17:18:01 61° NE 17:25:07 10° SE
CSL-04 Rocket 3.9 17:13:25 10° S 17:18:49 76° WSW 17:24:20 10° NNW
FENGYUN 3A 4.3 17:15:44 10° SE 17:20:24 31° ENE 17:25:04 10° N
Meteor 1-28 Rocket 3.1 17:16:46 10° NNE 17:20:31 78° E 17:24:17 10° S
Cosmos 1975 Rocket 3.9 17:17:06 10° SSW 17:21:28 55° W 17:25:54 10° N
EO 1 Del DPAF 4.3 17:21:15 17° NE 17:23:21 26° E 17:26:35 10° SSE
SJ 16-02 2.0 17:19:51 10° SSE 17:23:49 34° E 17:26:43 16° NE
USA 161 4.4 17:23:34 10° NNW 17:25:24 16° WNW 17:27:16 10° WSW
METEOR-M 4.2 17:21:21 10° SSE 17:26:33 56° ENE 17:31:47 10° N
Abrixas rocket 3.1 17:23:40 10° W 17:26:44 37° NNW 17:28:27 21° NE
Cosmos 1697 Rocket 3.7 17:22:16 10° SSE 17:26:50 26° ESE 17:29:26 18° ENE
Cosmos 1743 2.8 17:23:06 10° N 17:26:59 81° W 17:30:52 10° S
ISS -3.9 17:24:53 10° NW 17:28:10 70° NNE 17:30:36 17° ESE
DELTA 2 R/B (1) 3.7 17:27:54 10° WSW 17:33:25 69° S 17:37:24 19° E
Cosmos 2082 3.8 17:28:45 10° NNW 17:34:15 53° ENE 17:39:44 10° SE
MOS 1 4.4 17:29:00 10° SE 17:34:30 54° ENE 17:40:02 10° N
Cosmos 372 Rocket 4.1 17:34:22 10° S 17:39:25 54° ESE 17:43:21 17° NNE
PSLV R/B 3.5 17:39:42 10° WSW 17:42:46 50° SSE 17:43:43 35° ESE
Landsat 4 3.6 17:43:47 13° NNE 17:47:11 83° ESE 17:51:00 10° SSW
Cosmos 2227 Rocket 2.1 17:42:02 10° NNW 17:47:44 85° ENE 17:53:23 10° SSE
NOSS 3-2 (A) 4.0 17:40:43 10° NNW 17:48:06 59° NE 17:56:09 10° SE
Cosmos 1536 Rocket 3.5 17:45:15 10° S 17:49:36 89° W 17:53:58 10° N
IRS-1A Rocket 4.5 17:45:05 10° S 17:50:41 74° WSW 17:56:14 10° NNW
Cosmos 1025 Rocket 3.6 17:47:33 10° SSE 17:51:24 33° E 17:51:24 33° E
Atlas Centaur 2 3.9 17:49:06 10° WSW 17:52:36 18° SSW 17:55:39 10° SSE
Meteor 1-23 Rocket 4.2 17:47:29 10° S 17:53:08 61° E 17:58:45 10° NNE
NOSS 3-2 (C) 4.1 17:47:04 10° NNW 17:54:19 51° NE 18:01:16 14° ESE
Cosmos 1271 Rocket 4.3 17:51:58 10° NNW 17:55:29 37° W 17:59:01 10° SSW
Cosmos 724 4.1 17:53:12 10° NNW 17:59:00 74° ENE 18:04:48 10° SE
Meteor 2-9 Rocket 4.2 17:53:29 10° NNW 17:59:01 79° W 18:04:24 10° S
ERS-2 2.0 17:56:51 10° SSE 18:00:30 85° ENE 18:04:11 10° NNW
SKYMED 2 3.5 17:56:48 13° NNE 18:00:41 87° WNW 18:05:02 10° SSW
ATLAS 2AS CENTAUR R/B 3.6 17:53:22 10° SW 18:01:02 57° NW 18:08:06 14° NNE
MTI 4.4 18:04:09 26° N 18:05:44 56° WNW 18:08:54 10° SSW
ATLAS 3B R/B 2.8 17:59:33 10° NW 18:06:12 72° WSW 18:12:38 10° SSE
Cosmos 1980 Rocket 2.9 18:01:48 10° SSE 18:06:36 32° ESE 18:06:36 32° ESE
Cosmos 2266 Rocket 4.0 18:01:03 10° N 18:07:08 78° W 18:13:17 10° S
DMSP B5D1-3 4.4 18:09:14 24° NNE 18:12:23 71° ESE 18:17:28 10° S
Cosmos 2297 Rocket 2.5 18:09:04 10° NNW 18:14:42 70° WSW 18:20:18 10° SSE
SPOT 3 Rocket 3.6 18:15:24 10° S 18:20:35 76° WSW 18:25:47 10° NNW
NOSS 3-4 (A) 3.4 18:15:58 10° SSW 18:22:05 64° ESE 18:23:50 46° ENE
NOSS 3-4 (C) 3.4 18:16:05 10° SSW 18:22:12 63° ESE 18:23:53 46° ENE
CZ-4 R/B 4.1 18:21:15 10° SW 18:24:06 19° W 18:26:59 10° NW
Cosmos 1656 4.0 18:25:39 10° SW 18:31:10 62° WNW 18:33:56 29° N
Thor Agena Rocket 4.2 18:35:10 41° SSE 18:35:10 41° SSE 18:38:53 10° S
Cosmos 1244 Rocket 4.3 18:32:58 10° N 18:39:08 84° E 18:45:19 10° S
ALOS 3.3 18:34:40 10° S 18:39:08 46° W 18:43:39 10° NNW
Okean 2 4.0 18:38:58 10° SSW 18:42:23 52° WSW 18:42:23 52° WSW
CENTAUR R/B 3.2 18:41:06 10° NNW 18:48:42 50° NE 18:48:45 50° NE
Cosmos 1553 Rocket 4.0 18:53:56 10° S 18:59:34 70° SSE 18:59:34 70° SSE
SJ 16-02 3.5 18:59:03 10° WSW 19:02:29 22° WNW 19:03:46 19° NW
Cosmos 1417 Rocket 4.4 18:57:00 10° S 19:03:09 83° W 19:03:20 82° NW
ISS -0.5 19:02:31 10° W 19:03:20 12° WSW 19:03:20 12° WSW
Gbstr 26 Del rocket 4.2 18:58:12 10° WSW 19:06:09 75° NNW 19:06:48 70° N
Cosmos 1697 Rocket 3.5 19:05:05 10° SW 19:10:29 46° WNW 19:11:14 43° NW
Cosmos 1980 Rocket 4.0 19:45:24 10° SW 19:48:26 27° WSW 19:48:26 27° WSW
